Atlantic City, NJ

3:02 PM EDT on July 23, 2017 (GMT -0400)
Atlantic City International

Weather History for KACY - September, 2012

Change the Weather History Date:

Tuesday, September 18, 2012

  Actual Average Record
Temperature  
Mean Temperature 73 °F 66 °F  
Max Temperature 79 °F 76 °F 89 °F (1965)
Min Temperature 67 °F 57 °F 36 °F (1990)
Degree Days  
Heating Degree Days 0 2  
Month to date heating degree days 11 19  
Since 1 July heating degree days 11 22  
Cooling Degree Days 8 4  
Month to date cooling degree days 106 98  
Year to date cooling degree days 1165 1007  
Growing Degree Days 24 (Base 50)    
Moisture  
Dew Point 67 °F    
Average Humidity 81    
Maximum Humidity 90    
Minimum Humidity 71    
Precipitation  
Precipitation 0.24 in 0.11 in 4.01 in (1936)
Month to date precipitation 3.15 1.78  
Year to date precipitation 31.65 30.00  
Snow  
Snow 0.00 in 0.00 in 0.00 in ()
Month to date snowfall 0.0 0.0  
Since 1 July snowfall 0.0 0.0  
Since 1 September snowfall 0.0 0.0  
Snow Depth 0.00 in    
Sea Level Pressure  
Sea Level Pressure 29.83 in    
Wind  
Wind Speed 16 mph (South)    
Max Wind Speed 44 mph    
Max Gust Speed 54 mph    
Visibility 9 miles    
Events Rain    
T = Trace of Precipitation, MM = Missing Value Source: NWS Daily Summary

Daily Weather History Graph

Daily Weather History Graph

Search for Another Location

Airport or City:

Trip Planner

Search our weather history database for the weather conditions in past years. The results will help you decide how hot, cold, wet, or windy it might be!

Date:

Astronomy

Sep. 18, 2012 Rise Set
Actual Time 6:42 AM EDT 7:01 PM EDT
Civil Twilight 6:15 AM EDT 7:28 PM EDT
Nautical Twilight 5:44 AM EDT 7:59 PM EDT
Astronomical Twilight 5:12 AM EDT 8:31 PM EDT
Moon 9:38 AM EDT (9/18) 8:23 PM EDT (9/18)
Length of Visible Light 13h 12m
Length of Day
12h 18m
Waxing Crescent, 9% of the Moon is Illuminated
Sep 18
Waxing Crescent
Sep 22
First Quarter
Sep 29
Full
Oct 8
Last Quarter
Oct 15
New

Hourly Weather History & Observations

Time (EDT) Temp. Dew Point Humidity Pressure Visibility Wind Dir Wind Speed Gust Speed Precip Events Conditions
12:54 AM 72.0 °F 63.0 °F 73% 30.02 in 10.0 mi South 8.1 mph - N/A   Overcast
1:44 AM 71.6 °F 64.4 °F 78% 30.01 in 10.0 mi South 8.1 mph - N/A   Mostly Cloudy
1:54 AM 72.0 °F 64.0 °F 76% 30.01 in 10.0 mi SSE 9.2 mph - N/A   Overcast
2:28 AM 71.6 °F 64.4 °F 78% 29.99 in 10.0 mi SSE 8.1 mph - N/A   Mostly Cloudy
2:54 AM 72.0 °F 64.9 °F 78% 29.98 in 10.0 mi South 10.4 mph 18.4 mph N/A   Overcast
3:54 AM 73.0 °F 66.0 °F 79% 29.95 in 10.0 mi North - - N/A   Mostly Cloudy
4:54 AM 73.0 °F 66.0 °F 79% 29.94 in 10.0 mi North - - N/A   Overcast
5:54 AM 73.0 °F 66.0 °F 79% 29.92 in 10.0 mi South 13.8 mph 23.0 mph N/A   Overcast
6:54 AM 73.0 °F 66.9 °F 81% 29.91 in 10.0 mi SSE 16.1 mph 25.3 mph 0.01 in Rain Light Rain
7:22 AM 73.4 °F 66.2 °F 78% 29.90 in 10.0 mi South 12.7 mph 25.3 mph 0.00 in   Overcast
7:54 AM 73.9 °F 66.9 °F 79% 29.89 in 10.0 mi South 15.0 mph 29.9 mph 0.00 in   Overcast
9:02 AM 75.2 °F 68.0 °F 78% 29.88 in 9.0 mi South 19.6 mph 31.1 mph N/A   Mostly Cloudy
9:10 AM 75.2 °F 68.0 °F 78% 29.88 in 9.0 mi SSE 18.4 mph 31.1 mph N/A   Mostly Cloudy
10:01 AM 75.2 °F 68.0 °F 78% 29.87 in 10.0 mi South 18.4 mph 27.6 mph N/A   Mostly Cloudy
10:54 AM 75.9 °F 69.1 °F 79% 29.85 in 9.0 mi SSE 20.7 mph 32.2 mph N/A   Overcast
11:13 AM 75.2 °F 69.8 °F 83% 29.84 in 9.0 mi South 19.6 mph 32.2 mph N/A   Mostly Cloudy
11:40 AM 75.2 °F 69.8 °F 83% 29.83 in 9.0 mi SSE 23.0 mph 33.4 mph N/A   Mostly Cloudy
11:54 AM 77.0 °F 69.1 °F 76% 29.82 in 9.0 mi South 21.9 mph 29.9 mph N/A   Overcast
12:10 PM 77.0 °F 69.8 °F 78% 29.81 in 9.0 mi South 28.8 mph 39.1 mph N/A   Overcast
12:54 PM 78.1 °F 69.1 °F 74% 29.80 in 9.0 mi South 18.4 mph 34.5 mph N/A   Overcast
1:54 PM 78.1 °F 68.0 °F 71% 29.78 in 9.0 mi South 24.2 mph 38.0 mph N/A   Overcast
2:54 PM 77.0 °F 69.1 °F 76% 29.74 in 8.0 mi South 21.9 mph 39.1 mph N/A   Overcast
3:54 PM 75.9 °F 69.1 °F 79% 29.74 in 8.0 mi South 16.1 mph 36.8 mph 0.00 in   Overcast
4:54 PM 75.0 °F 70.0 °F 84% 29.71 in 6.0 mi South 25.3 mph 40.3 mph 0.00 in Rain Light Rain
5:54 PM 75.9 °F 69.1 °F 79% 29.72 in 7.0 mi South 23.0 mph 35.7 mph 0.00 in   Overcast
6:12 PM 75.2 °F 69.8 °F 83% 29.72 in 8.0 mi South 21.9 mph 36.8 mph N/A   Overcast
6:54 PM 75.9 °F 70.0 °F 82% 29.71 in 7.0 mi South 21.9 mph 36.8 mph N/A   Overcast
7:54 PM 75.9 °F 70.0 °F 82% 29.70 in 9.0 mi South 21.9 mph 33.4 mph N/A   Overcast
8:16 PM 75.2 °F 71.6 °F 89% 29.68 in 1.8 mi South 25.3 mph 48.3 mph 0.04 in Rain Heavy Rain
8:29 PM 69.8 °F 68.0 °F 94% 29.73 in 5.0 mi SSW 19.6 mph 46.0 mph 0.15 in Rain Light Rain
8:54 PM 69.1 °F 66.9 °F 93% 29.73 in 10.0 mi SSW 12.7 mph - 0.20 in Rain Light Rain
9:11 PM 69.8 °F 66.2 °F 88% 29.73 in 10.0 mi South 13.8 mph - 0.01 in Rain Light Rain
9:20 PM 69.8 °F 66.2 °F 88% 29.72 in 9.0 mi South 10.4 mph - 0.02 in Rain Light Rain
10:03 PM 69.8 °F 66.2 °F 88% 29.76 in 10.0 mi SW 9.2 mph - N/A   Mostly Cloudy
10:12 PM 69.8 °F 66.2 °F 88% 29.77 in 10.0 mi SSW 8.1 mph - N/A   Scattered Clouds
10:22 PM 69.8 °F 66.2 °F 88% 29.77 in 10.0 mi SSW 6.9 mph - N/A   Mostly Cloudy
10:35 PM 69.8 °F 66.2 °F 88% 29.78 in 10.0 mi SW 9.2 mph - N/A   Mostly Cloudy
10:47 PM 69.8 °F 66.2 °F 88% 29.79 in 10.0 mi SW 11.5 mph - N/A   Overcast
10:54 PM 69.1 °F 66.0 °F 90% 29.79 in 10.0 mi SW 10.4 mph - N/A   Overcast
11:54 PM 69.1 °F 66.0 °F 90% 29.78 in 10.0 mi WSW 8.1 mph - N/A   Mostly Cloudy